OCN34X LGKL-EDDF

Flight info

Callsign OCN34X
Flight time N/A
Altitude 34000
Route ETILI UM872 KFN UN731 YNN UL604 DIMIS DCT ADDER DCT UNDER DCT KUSIB/N0454F360 DCT PODET DCT SIMBA DCT AKINI T161 DEBHI SPESA5C
Aircraft A320/M-SDE3FGHIRWY/LB1

Departure

Time 2026-04-26 06:49
Airport Kalamata Airport (LGKL)

Arrival

Time N/A
Airport Frankfurt Main Airport (EDDF)
Time Latitude Longitude Altitude Speed Heading
2026-04-26 06:22 37.05539 22.03247 34 ft 0 kts 283°
2026-04-26 06:46 37.05538 22.03246 34 ft 1 kts 266°
2026-04-26 06:46 37.05528 22.03227 33 ft 5 kts 240°
2026-04-26 06:46 37.05516 22.03151 34 ft 10 kts 284°
2026-04-26 06:47 37.05532 22.03074 32 ft 8 kts 285°
2026-04-26 06:47 37.05544 22.03012 34 ft 8 kts 275°
2026-04-26 06:47 37.05530 22.02925 32 ft 12 kts 257°
2026-04-26 06:47 37.05542 22.02844 33 ft 9 kts 331°
2026-04-26 06:48 37.05604 22.02828 33 ft 12 kts 349°
2026-04-26 06:48 37.05877 22.02765 31 ft 75 kts 349°
2026-04-26 06:48 37.06591 22.02597 33 ft 132 kts 349°
2026-04-26 06:48 37.07619 22.02379 308 ft 154 kts 352°
2026-04-26 06:49 37.08659 22.02151 996 ft 151 kts 350°
2026-04-26 06:49 37.09736 22.01950 1443 ft 165 kts 351°
2026-04-26 06:49 37.10941 22.01746 1700 ft 188 kts 352°
2026-04-26 06:49 37.12307 22.01497 1984 ft 209 kts 351°
2026-04-26 06:50 37.13810 22.01216 2393 ft 227 kts 352°
2026-04-26 06:50 37.15445 22.00900 2876 ft 245 kts 351°
2026-04-26 06:50 37.17151 22.00559 3609 ft 252 kts 351°
2026-04-26 06:50 37.18833 21.99899 4410 ft 258 kts 331°
2026-04-26 06:51 37.20186 21.98396 5113 ft 266 kts 309°
2026-04-26 06:51 37.22519 21.94690 6598 ft 275 kts 308°
2026-04-26 06:51 37.23702 21.92791 7317 ft 278 kts 308°
2026-04-26 06:52 37.24901 21.90868 8050 ft 281 kts 308°
2026-04-26 06:52 37.26114 21.88927 8788 ft 284 kts 309°
2026-04-26 06:52 37.27341 21.86968 9558 ft 287 kts 309°
2026-04-26 06:52 37.28582 21.84990 10231 ft 293 kts 309°
2026-04-26 06:53 37.29892 21.82907 10394 ft 316 kts 309°
2026-04-26 06:53 37.31303 21.80663 10528 ft 338 kts 309°
2026-04-26 06:53 37.32807 21.78264 10656 ft 359 kts 309°
2026-04-26 06:53 37.34392 21.75734 10784 ft 378 kts 309°
2026-04-26 06:54 37.36042 21.73095 11147 ft 388 kts 309°
2026-04-26 06:54 37.37694 21.70445 11699 ft 392 kts 309°
2026-04-26 06:54 37.39377 21.67739 12275 ft 395 kts 309°
2026-04-26 06:54 37.41074 21.65011 12834 ft 397 kts 309°
2026-04-26 06:55 37.42786 21.62261 13374 ft 400 kts 309°
2026-04-26 06:55 37.44510 21.59495 13898 ft 403 kts 309°
2026-04-26 06:55 37.46247 21.56711 14367 ft 406 kts 309°
2026-04-26 06:55 37.47992 21.53911 14851 ft 408 kts 310°
2026-04-26 06:56 37.49744 21.51094 15320 ft 410 kts 310°
2026-04-26 06:56 37.51501 21.48259 15786 ft 412 kts 310°
2026-04-26 06:56 37.53270 21.45404 16242 ft 414 kts 310°
2026-04-26 06:56 37.55045 21.42537 16688 ft 416 kts 310°
2026-04-26 06:57 37.56829 21.39656 17131 ft 418 kts 310°
2026-04-26 06:57 37.58626 21.36759 17564 ft 420 kts 310°
2026-04-26 06:57 37.60432 21.33848 17997 ft 422 kts 310°
2026-04-26 06:57 37.62245 21.30923 18437 ft 424 kts 310°
2026-04-26 06:58 37.64061 21.27981 18796 ft 426 kts 310°
2026-04-26 06:58 37.65887 21.25018 19168 ft 428 kts 310°
2026-04-26 06:58 37.67719 21.22046 19516 ft 430 kts 310°
2026-04-26 06:58 37.69558 21.19059 19856 ft 432 kts 310°
2026-04-26 06:59 37.71405 21.16055 20189 ft 434 kts 310°
2026-04-26 06:59 37.73261 21.13029 20514 ft 436 kts 310°
2026-04-26 06:59 37.75120 21.09991 20835 ft 438 kts 310°
2026-04-26 06:59 37.76988 21.06938 21151 ft 440 kts 310°
2026-04-26 07:00 37.78866 21.03873 21459 ft 442 kts 310°
2026-04-26 07:00 37.80755 21.00789 21768 ft 444 kts 310°
2026-04-26 07:00 37.82648 20.97695 22073 ft 446 kts 310°
2026-04-26 07:00 37.84548 20.94584 22368 ft 448 kts 310°
2026-04-26 07:01 37.86454 20.91458 22661 ft 450 kts 310°
2026-04-26 07:01 37.88372 20.88313 22947 ft 452 kts 310°
2026-04-26 07:01 37.90269 20.85201 23205 ft 453 kts 310°
2026-04-26 07:01 37.92223 20.81994 23498 ft 455 kts 310°
2026-04-26 07:02 37.94155 20.78814 23744 ft 457 kts 309°
2026-04-26 07:02 37.96096 20.75613 23967 ft 458 kts 309°
2026-04-26 07:02 37.98039 20.72406 24199 ft 460 kts 309°
2026-04-26 07:02 37.99988 20.69189 24427 ft 461 kts 309°
2026-04-26 07:03 38.01945 20.65961 24651 ft 462 kts 309°
2026-04-26 07:03 38.03880 20.62767 24875 ft 463 kts 309°
2026-04-26 07:03 38.05879 20.59495 25174 ft 462 kts 311°
2026-04-26 07:03 38.08106 20.56669 25463 ft 458 kts 322°
2026-04-26 07:04 38.10742 20.54439 25767 ft 455 kts 334°
2026-04-26 07:04 38.13652 20.52912 26071 ft 452 kts 344°
2026-04-26 07:04 38.16726 20.52141 26389 ft 450 kts 355°
2026-04-26 07:04 38.19855 20.52156 26705 ft 449 kts
2026-04-26 07:05 38.22948 20.52737 26980 ft 450 kts
2026-04-26 07:05 38.26038 20.53347 27278 ft 449 kts
2026-04-26 07:05 38.29125 20.53951 27615 ft 449 kts
2026-04-26 07:05 38.32213 20.54549 27947 ft 448 kts
2026-04-26 07:06 38.35291 20.55140 28281 ft 447 kts
2026-04-26 07:06 38.38364 20.55732 28622 ft 446 kts
2026-04-26 07:06 38.41431 20.56328 28956 ft 446 kts
2026-04-26 07:06 38.44502 20.56930 29258 ft 446 kts
2026-04-26 07:07 38.47567 20.57534 29576 ft 446 kts
2026-04-26 07:07 38.50628 20.58140 29907 ft 445 kts
2026-04-26 07:07 38.53684 20.58745 30216 ft 444 kts
2026-04-26 07:07 38.56741 20.59346 30486 ft 444 kts
2026-04-26 07:08 38.59788 20.59942 30757 ft 443 kts
2026-04-26 07:08 38.62832 20.60535 31028 ft 442 kts
2026-04-26 07:08 38.65874 20.61128 31269 ft 442 kts
2026-04-26 07:08 38.68914 20.61726 31523 ft 442 kts
2026-04-26 07:09 38.71955 20.62327 31785 ft 442 kts
2026-04-26 07:09 38.74988 20.62928 32045 ft 441 kts
2026-04-26 07:09 38.78017 20.63526 32321 ft 440 kts
2026-04-26 07:09 38.81046 20.64122 32597 ft 440 kts
2026-04-26 07:10 38.90091 20.65909 33389 ft 438 kts
2026-04-26 07:11 38.96102 20.67118 33900 ft 436 kts
2026-04-26 07:11 38.99064 20.67717 34040 ft 438 kts
2026-04-26 07:11 39.02082 20.68326 34060 ft 440 kts
2026-04-26 07:12 39.08150 20.69553 34059 ft 442 kts
2026-04-26 07:12 39.14228 20.70781 34061 ft 442 kts
2026-04-26 07:13 39.20312 20.72004 34061 ft 442 kts
2026-04-26 07:13 39.26397 20.73237 34062 ft 443 kts
2026-04-26 07:14 39.32479 20.74479 34066 ft 443 kts
2026-04-26 07:14 39.38571 20.75719 34066 ft 443 kts
2026-04-26 07:15 39.44659 20.76959 34072 ft 443 kts
2026-04-26 07:15 39.50753 20.78203 34072 ft 443 kts
2026-04-26 07:16 39.56847 20.79440 34078 ft 443 kts
2026-04-26 07:16 39.62942 20.80678 34079 ft 444 kts
2026-04-26 07:17 39.69065 20.81169 34095 ft 441 kts 353°
2026-04-26 07:17 39.74954 20.79119 34079 ft 440 kts 335°
2026-04-26 07:18 39.80502 20.75748 34067 ft 441 kts 335°
2026-04-26 07:18 39.86067 20.72387 34062 ft 441 kts 335°
2026-04-26 07:19 39.91639 20.69011 34067 ft 442 kts 334°
2026-04-26 07:19 39.97205 20.65624 34064 ft 442 kts 334°
2026-04-26 07:20 40.02768 20.62220 34060 ft 441 kts 334°
2026-04-26 07:20 40.08293 20.58841 34057 ft 442 kts 334°
2026-04-26 07:21 40.13818 20.55344 34076 ft 441 kts 333°
2026-04-26 07:21 40.19327 20.51788 34067 ft 441 kts 333°
2026-04-26 07:22 40.24827 20.48234 34067 ft 441 kts 333°
2026-04-26 07:22 40.30334 20.44695 34057 ft 441 kts 333°
2026-04-26 07:23 40.35853 20.41151 34062 ft 442 kts 332°
2026-04-26 07:23 40.41369 20.37601 34067 ft 442 kts 332°
2026-04-26 07:24 40.46885 20.34042 34071 ft 441 kts 332°
2026-04-26 07:24 40.52395 20.30477 34073 ft 441 kts 332°
2026-04-26 07:25 40.57905 20.26897 34076 ft 442 kts 332°
2026-04-26 07:25 40.63405 20.23308 34087 ft 441 kts 332°
2026-04-26 07:26 40.68894 20.19717 34097 ft 440 kts 332°
2026-04-26 07:26 40.74371 20.16126 34093 ft 440 kts 332°
2026-04-26 07:27 40.79851 20.12521 34085 ft 440 kts 331°
2026-04-26 07:27 40.85326 20.08923 34096 ft 440 kts 331°
2026-04-26 07:28 40.90767 20.05351 34097 ft 439 kts 331°
2026-04-26 07:28 40.96238 20.01752 34097 ft 439 kts 331°
2026-04-26 07:29 41.01704 19.98140 34096 ft 439 kts 331°
2026-04-26 07:29 41.07163 19.94500 34093 ft 439 kts 330°
2026-04-26 07:30 41.12458 19.90513 34097 ft 437 kts 327°
2026-04-26 07:30 41.17641 19.86293 34101 ft 437 kts 326°
2026-04-26 07:31 41.22835 19.82081 34100 ft 437 kts 327°
2026-04-26 07:31 41.28099 19.77902 34111 ft 445 kts 327°
2026-04-26 07:32 41.33444 19.73680 34110 ft 447 kts 327°
2026-04-26 07:32 41.38788 19.69438 34111 ft 448 kts 326°
2026-04-26 07:33 41.44134 19.65166 34108 ft 448 kts 326°
2026-04-26 07:33 41.49471 19.60891 34108 ft 447 kts 326°
2026-04-26 07:34 41.53900 19.57337 34111 ft 447 kts 326°
2026-04-26 07:34 41.59236 19.53057 34110 ft 447 kts 326°
2026-04-26 07:35 41.64569 19.48780 34106 ft 447 kts 326°
2026-04-26 07:35 41.69890 19.44498 34100 ft 447 kts 326°
2026-04-26 07:36 41.75215 19.40200 34094 ft 447 kts 326°
2026-04-26 07:36 41.80543 19.35895 34103 ft 447 kts 326°
2026-04-26 07:37 41.85873 19.31578 34096 ft 447 kts 326°
2026-04-26 07:37 41.91200 19.27249 34095 ft 448 kts 326°
2026-04-26 07:38 41.96530 19.22922 34095 ft 448 kts 326°
2026-04-26 07:38 42.01856 19.18592 34102 ft 447 kts 326°
2026-04-26 07:39 42.07175 19.14244 34105 ft 447 kts 326°
2026-04-26 07:39 42.12487 19.09886 34096 ft 447 kts 326°
2026-04-26 07:40 42.17807 19.05538 34283 ft 448 kts 326°
2026-04-26 07:40 42.20469 19.03363 34511 ft 447 kts 326°
2026-04-26 07:40 42.23118 19.01189 34718 ft 446 kts 326°
2026-04-26 07:40 42.25762 18.99010 34931 ft 445 kts 326°
2026-04-26 07:41 42.28402 18.96830 35149 ft 444 kts 326°
2026-04-26 07:41 42.31032 18.94660 35365 ft 443 kts 326°
2026-04-26 07:41 42.33662 18.92489 35568 ft 442 kts 326°
2026-04-26 07:41 42.36288 18.90325 35772 ft 442 kts 326°
2026-04-26 07:42 42.38908 18.88164 35963 ft 441 kts 326°
2026-04-26 07:42 42.41527 18.85997 36076 ft 441 kts 326°
2026-04-26 07:42 42.44143 18.83827 36089 ft 441 kts 326°
2026-04-26 07:43 42.49359 18.79492 36087 ft 439 kts 326°
2026-04-26 07:43 42.54567 18.75176 36096 ft 440 kts 326°
2026-04-26 07:44 42.59785 18.70833 36089 ft 440 kts 326°
2026-04-26 07:44 42.64999 18.66481 36092 ft 440 kts 326°
2026-04-26 07:45 42.70211 18.62119 36101 ft 440 kts 326°
2026-04-26 07:45 42.75417 18.57751 36102 ft 439 kts 326°
2026-04-26 07:46 42.80624 18.53388 36098 ft 439 kts 326°
2026-04-26 07:46 42.85824 18.49016 36101 ft 439 kts 325°
2026-04-26 07:47 42.91019 18.44628 36106 ft 439 kts 325°
2026-04-26 07:47 42.96211 18.40243 36114 ft 439 kts 326°
2026-04-26 07:48 43.01412 18.35859 36105 ft 439 kts 326°
2026-04-26 07:48 43.06609 18.31451 36105 ft 440 kts 326°
2026-04-26 07:49 43.11802 18.27035 36106 ft 440 kts 326°
2026-04-26 07:49 43.16963 18.22637 36127 ft 440 kts 326°
2026-04-26 07:50 43.24753 18.15989 36121 ft 440 kts 326°
2026-04-26 07:50 43.29980 18.11528 36120 ft 440 kts 326°
2026-04-26 07:51 43.35136 18.07109 36123 ft 440 kts 326°
2026-04-26 07:51 43.40318 18.02652 36122 ft 440 kts 326°
2026-04-26 07:52 43.45502 17.98178 36120 ft 440 kts 326°
2026-04-26 07:52 43.50689 17.93710 36117 ft 440 kts 326°
2026-04-26 07:53 43.55874 17.89240 36120 ft 440 kts 326°
2026-04-26 07:53 43.61061 17.84760 36132 ft 440 kts 326°
2026-04-26 07:54 43.66237 17.80258 36132 ft 440 kts 326°
2026-04-26 07:54 43.71413 17.75734 36118 ft 440 kts 326°
2026-04-26 07:55 43.76599 17.71215 36114 ft 441 kts 326°
2026-04-26 07:55 43.81791 17.66691 36117 ft 441 kts 326°
2026-04-26 07:56 43.86984 17.62149 36120 ft 441 kts 326°
2026-04-26 07:56 43.92173 17.57597 36114 ft 442 kts 326°
2026-04-26 07:57 43.97365 17.53028 36105 ft 442 kts 326°
2026-04-26 07:57 44.02561 17.48447 36101 ft 443 kts 326°
2026-04-26 07:58 44.07770 17.43859 36114 ft 443 kts 326°
2026-04-26 07:58 44.12933 17.39298 36109 ft 443 kts 326°
2026-04-26 07:59 44.18132 17.34692 36108 ft 443 kts 326°
2026-04-26 07:59 44.23326 17.30074 36100 ft 443 kts 326°
2026-04-26 08:00 44.28524 17.25443 36111 ft 443 kts 326°
2026-04-26 08:00 44.33723 17.20809 36112 ft 443 kts 326°
2026-04-26 08:01 44.38921 17.16164 36115 ft 443 kts 326°
2026-04-26 08:01 44.44112 17.11516 36112 ft 443 kts 326°
2026-04-26 08:02 44.49306 17.06861 36123 ft 443 kts 326°
2026-04-26 08:02 44.54491 17.02195 36119 ft 443 kts 326°
2026-04-26 08:03 44.59665 16.97514 36110 ft 442 kts 326°
2026-04-26 08:03 44.64839 16.92836 36105 ft 442 kts 326°
2026-04-26 08:04 44.70013 16.88161 36103 ft 442 kts 326°
2026-04-26 08:04 44.75186 16.83470 36106 ft 442 kts 326°
2026-04-26 08:05 44.80358 16.78773 36098 ft 443 kts 326°
2026-04-26 08:05 44.85537 16.74062 36105 ft 443 kts 326°
2026-04-26 08:06 44.90712 16.69337 36112 ft 443 kts 326°
2026-04-26 08:06 44.95879 16.64601 36123 ft 443 kts 326°
2026-04-26 08:07 45.01008 16.59885 36118 ft 443 kts 326°
2026-04-26 08:07 45.06171 16.55137 36119 ft 443 kts 326°
2026-04-26 08:08 45.11340 16.50382 36126 ft 443 kts 326°
2026-04-26 08:08 45.16523 16.45651 36120 ft 443 kts 327°
2026-04-26 08:09 45.21854 16.41270 36123 ft 443 kts 330°
2026-04-26 08:09 45.27241 16.37051 36135 ft 442 kts 330°
2026-04-26 08:10 45.32602 16.32768 36131 ft 442 kts 329°
2026-04-26 08:10 45.37931 16.28419 36132 ft 442 kts 329°
2026-04-26 08:11 45.43252 16.24054 36136 ft 441 kts 329°
2026-04-26 08:11 45.48571 16.19694 36140 ft 441 kts 329°
2026-04-26 08:12 45.53887 16.15335 36131 ft 441 kts 329°
2026-04-26 08:12 45.59203 16.10971 36133 ft 441 kts 329°
2026-04-26 08:13 45.64519 16.06590 36130 ft 441 kts 329°
2026-04-26 08:13 45.69830 16.02205 36134 ft 441 kts 329°
2026-04-26 08:14 45.75139 15.97802 36153 ft 441 kts 329°
2026-04-26 08:14 45.80451 15.93394 36134 ft 441 kts 329°
2026-04-26 08:15 45.85761 15.88980 36136 ft 441 kts 329°
2026-04-26 08:15 45.91072 15.84556 36139 ft 441 kts 329°
2026-04-26 08:16 45.96380 15.80124 36144 ft 441 kts 329°
2026-04-26 08:16 46.01683 15.75689 36142 ft 441 kts 329°
2026-04-26 08:17 46.06982 15.71240 36139 ft 441 kts 329°
2026-04-26 08:17 46.12236 15.66816 36143 ft 441 kts 329°
2026-04-26 08:18 46.17472 15.62219 36130 ft 440 kts 322°
2026-04-26 08:18 46.22198 15.56607 36121 ft 440 kts 320°
2026-04-26 08:19 46.26895 15.50937 36113 ft 441 kts 319°
2026-04-26 08:19 46.31594 15.45242 36114 ft 441 kts 319°
2026-04-26 08:20 46.36297 15.39529 36109 ft 441 kts 319°
2026-04-26 08:20 46.41004 15.33807 36115 ft 442 kts 319°
2026-04-26 08:21 46.45715 15.28068 36114 ft 443 kts 319°
2026-04-26 08:21 46.49633 15.23287 36114 ft 443 kts 319°
2026-04-26 08:22 46.54350 15.17517 36113 ft 443 kts 319°
2026-04-26 08:22 46.59063 15.11737 36128 ft 443 kts 319°
2026-04-26 08:23 46.63770 15.05944 36122 ft 443 kts 319°
2026-04-26 08:23 46.68476 15.00133 36126 ft 443 kts 319°
2026-04-26 08:24 46.73179 14.94324 36125 ft 443 kts 319°
2026-04-26 08:24 46.77884 14.88506 36133 ft 443 kts 319°
2026-04-26 08:25 46.82581 14.82674 36126 ft 443 kts 319°
2026-04-26 08:25 46.87281 14.76838 36127 ft 444 kts 319°
2026-04-26 08:26 46.91981 14.70973 36128 ft 444 kts 319°
2026-04-26 08:26 46.96682 14.65095 36134 ft 445 kts 319°
2026-04-26 08:27 47.01384 14.59195 36136 ft 445 kts 318°
2026-04-26 08:27 47.06080 14.53277 36154 ft 445 kts 318°
2026-04-26 08:28 47.10778 14.47356 36162 ft 445 kts 318°
2026-04-26 08:28 47.15472 14.41436 36168 ft 444 kts 318°
2026-04-26 08:29 47.20153 14.35515 36172 ft 444 kts 318°
2026-04-26 08:29 47.24800 14.29632 36186 ft 443 kts 318°
2026-04-26 08:30 47.29469 14.23705 36197 ft 443 kts 318°
2026-04-26 08:30 47.34122 14.17769 36224 ft 441 kts 318°
2026-04-26 08:31 47.38753 14.11838 36222 ft 441 kts 318°
2026-04-26 08:31 47.43376 14.05905 36219 ft 440 kts 318°
2026-04-26 08:32 47.48001 13.99973 36221 ft 440 kts 318°
2026-04-26 08:32 47.52624 13.94038 36225 ft 440 kts 318°
2026-04-26 08:33 47.57241 13.88082 36223 ft 440 kts 318°
2026-04-26 08:33 47.61853 13.82120 36241 ft 440 kts 318°
2026-04-26 08:34 47.66466 13.76140 36238 ft 440 kts 318°
2026-04-26 08:34 47.71072 13.70150 36241 ft 440 kts 318°
2026-04-26 08:35 47.75677 13.64148 36242 ft 440 kts 317°
2026-04-26 08:35 47.80282 13.58136 36236 ft 441 kts 317°
2026-04-26 08:36 47.84857 13.52144 36233 ft 442 kts 317°
2026-04-26 08:36 47.89470 13.46084 36250 ft 442 kts 317°
2026-04-26 08:37 47.94083 13.40009 36252 ft 443 kts 317°
2026-04-26 08:37 47.98695 13.33917 36256 ft 443 kts 317°
2026-04-26 08:38 48.03307 13.27821 36253 ft 443 kts 317°
2026-04-26 08:38 48.07926 13.21716 36253 ft 444 kts 317°
2026-04-26 08:39 48.12545 13.15585 36253 ft 444 kts 317°
2026-04-26 08:39 48.17154 13.09434 36256 ft 444 kts 317°
2026-04-26 08:40 48.21765 13.03269 36265 ft 444 kts 317°
2026-04-26 08:40 48.26008 12.96565 36266 ft 443 kts 310°
2026-04-26 08:41 48.30096 12.89644 36262 ft 443 kts 310°
2026-04-26 08:41 48.34180 12.82710 36263 ft 443 kts 310°
2026-04-26 08:42 48.38254 12.75750 36265 ft 443 kts 310°
2026-04-26 08:42 48.42332 12.68784 36263 ft 444 kts 310°
2026-04-26 08:43 48.46391 12.61865 36265 ft 444 kts 310°
2026-04-26 08:43 48.50472 12.54872 36264 ft 444 kts 310°
2026-04-26 08:44 48.54544 12.47873 36264 ft 444 kts 310°
2026-04-26 08:44 48.58610 12.40856 36265 ft 444 kts 310°
2026-04-26 08:45 48.62671 12.33824 36270 ft 444 kts 310°
2026-04-26 08:45 48.66728 12.26782 36280 ft 444 kts 310°
2026-04-26 08:46 48.70784 12.19723 36272 ft 444 kts 309°
2026-04-26 08:46 48.74283 12.12079 36270 ft 442 kts 294°
2026-04-26 08:47 48.75987 12.03200 36269 ft 440 kts 279°
2026-04-26 08:47 48.76967 11.94029 36270 ft 441 kts 279°
2026-04-26 08:48 48.77951 11.84860 36265 ft 441 kts 279°
2026-04-26 08:48 48.78934 11.75681 36275 ft 441 kts 279°
2026-04-26 08:49 48.79902 11.66498 36280 ft 441 kts 278°
2026-04-26 08:49 48.80860 11.57311 36283 ft 441 kts 278°
2026-04-26 08:50 48.81815 11.48124 36284 ft 441 kts 278°
2026-04-26 08:50 48.82757 11.38936 36283 ft 441 kts 278°
2026-04-26 08:51 48.84579 11.25300 36279 ft 441 kts 291°
2026-04-26 08:52 48.87819 11.17425 36277 ft 444 kts 311°
2026-04-26 08:52 48.92319 11.11061 36276 ft 445 kts 315°
2026-04-26 08:53 48.96886 11.04692 36275 ft 446 kts 315°
2026-04-26 08:53 49.01443 10.98292 36283 ft 446 kts 315°
2026-04-26 08:54 49.05998 10.91865 36295 ft 446 kts 315°
2026-04-26 08:54 49.10554 10.85442 36292 ft 446 kts 315°
2026-04-26 08:55 49.15111 10.78998 36307 ft 446 kts 315°
2026-04-26 08:55 49.19657 10.72527 36315 ft 447 kts 315°
2026-04-26 08:56 49.24072 10.65857 36092 ft 446 kts 312°
2026-04-26 08:56 49.25498 10.63595 35671 ft 445 kts 311°
2026-04-26 08:56 49.28354 10.58990 34643 ft 447 kts 311°
2026-04-26 08:56 49.30496 10.55522 33782 ft 449 kts 311°
2026-04-26 08:57 49.32648 10.52054 32748 ft 447 kts 311°
2026-04-26 08:57 49.34802 10.48609 31267 ft 448 kts 311°
2026-04-26 08:57 49.36819 10.44970 29668 ft 448 kts 304°
2026-04-26 08:57 49.38626 10.41068 27801 ft 451 kts 304°
2026-04-26 08:58 49.40442 10.37108 25842 ft 456 kts 304°
2026-04-26 08:58 49.42275 10.33093 23919 ft 462 kts 304°
2026-04-26 08:58 49.44113 10.29057 22504 ft 456 kts 304°
2026-04-26 08:58 49.45916 10.25088 22111 ft 451 kts 304°
2026-04-26 08:59 49.47707 10.21141 21841 ft 450 kts 304°
2026-04-26 08:59 49.49495 10.17196 21580 ft 449 kts 304°
2026-04-26 08:59 49.51251 10.13313 21334 ft 448 kts 304°
2026-04-26 08:59 49.53022 10.09387 21095 ft 447 kts 304°
2026-04-26 09:00 49.54791 10.05461 20835 ft 445 kts 304°
2026-04-26 09:00 49.56550 10.01552 20584 ft 444 kts 304°
2026-04-26 09:00 49.58310 9.97639 20339 ft 444 kts 304°
2026-04-26 09:00 49.60063 9.93738 20092 ft 442 kts 304°
2026-04-26 09:01 49.61809 9.89849 19849 ft 441 kts 304°
2026-04-26 09:01 49.63551 9.85963 19608 ft 439 kts 304°
2026-04-26 09:01 49.65287 9.82091 19376 ft 438 kts 304°
2026-04-26 09:01 49.67016 9.78236 19138 ft 436 kts 304°
2026-04-26 09:02 49.68738 9.74382 18894 ft 435 kts 304°
2026-04-26 09:02 49.70448 9.70541 18664 ft 434 kts 304°
2026-04-26 09:02 49.72150 9.66698 18409 ft 434 kts 304°
2026-04-26 09:02 49.73854 9.62849 18146 ft 432 kts 304°
2026-04-26 09:03 49.75549 9.59028 17711 ft 430 kts 304°
2026-04-26 09:03 49.77232 9.55234 17165 ft 426 kts 304°
2026-04-26 09:03 49.78901 9.51469 16631 ft 423 kts 304°
2026-04-26 09:03 49.80557 9.47726 16107 ft 419 kts 304°
2026-04-26 09:04 49.82191 9.44019 15581 ft 415 kts 304°
2026-04-26 09:04 49.83811 9.40334 15062 ft 413 kts 304°
2026-04-26 09:04 49.85388 9.36636 14540 ft 410 kts 300°
2026-04-26 09:04 49.86604 9.32664 14057 ft 407 kts 291°